Location: Seattle
(47.6064°N, 122.3308°W)
Time: 05:46:49
(UTC-08:00)

S-56A Canister/Altair - Pass Details

Date: 28 November 2020
Orbit: 633 x 2499 km, 38.9° (Epoch: 23 January)

Event Time Altitude Azimuth Distance (km) Brightness Sun altitude
Rises 21:40:59 0° 255° (WSW) 5,129 12.1 -52.2°
Reaches altitude 10° 21:44:59 10° 250° (WSW) 3,828 11.3 -52.8°
Enters shadow 21:46:27 15° 247° (WSW) 3,357 10.9 -53.0°
Maximum altitude 21:53:40 44° 183° (S) 1,582 - -54.0°
Drops below altitude 10° 21:59:33 10° 112° (ESE) 2,611 - -54.8°
Sets 22:01:49 0° 106° (ESE) 3,379 - -55.1°
